Location: Killarney Provincial Park Observatory
(46.0124°N, 81.4000°W)
Time: 06:51:12
(UTC-05:00)

Iridium 22 - Visible Passes

Search period start: 08 December 2016 00:00
Search period end: 18 December 2016 00:00
Orbit: 776 x 779 km, 86.4° (Epoch: 07 December)

Date Brightness Start Highest point End Pass type
(mag) Time Alt. Az. Time Alt. Az. Time Alt. Az.
08 Dec 6.9 04:34:33 25° NE 04:36:40 35° E 04:41:26 10° SE visible
08 Dec 6.2 06:15:08 23° NW 06:17:17 31° W 06:21:48 10° SW visible
08 Dec 5.5 17:30:59 10° S 17:36:09 68° E 17:41:20 10° N visible
08 Dec 8.2 19:14:06 10° WSW 19:17:25 17° WNW 19:20:44 10° NNW visible
09 Dec 7.8 04:02:45 21° ENE 04:02:52 21° ENE 04:06:46 10° ESE visible
09 Dec 5.5 05:43:20 50° WNW 05:43:57 53° W 05:49:00 10° SSW visible
09 Dec 7.5 18:39:05 10° SW 18:43:33 28° WNW 18:48:03 10° NNW visible
10 Dec 8.5 03:30:49 10° E 03:30:49 10° E 03:30:56 10° E visible
10 Dec 5.7 05:11:24 62° S 05:11:24 62° S 05:15:42 10° S visible
10 Dec 7.4 06:51:58 11° W 06:51:58 11° W 06:52:34 10° W visible
10 Dec 6.5 18:04:47 10° SSW 18:09:49 49° W 18:14:54 10° N visible
11 Dec 7.1 04:39:21 28° SE 04:39:21 28° SE 04:41:56 10° SSE visible
11 Dec 7.2 06:19:55 15° WSW 06:19:55 15° WSW 06:21:10 10° SW visible
11 Dec 5.6 17:31:01 10° S 17:36:14 86° W 17:41:29 10° N visible
11 Dec 8.5 19:15:52 10° W 19:17:48 12° WNW 19:19:44 10° NW visible
12 Dec 8.2 04:07:12 12° SE 04:07:12 12° SE 04:07:39 10° SE visible
12 Dec 7.4 05:47:46 15° SW 05:47:46 15° SW 05:48:44 10° SSW visible
12 Dec 8.0 18:39:58 10° WSW 18:43:50 21° WNW 18:47:44 10° NNW visible
13 Dec 7.9 05:15:32 11° S 05:15:32 11° S 05:15:44 10° S visible
13 Dec 7.2 18:05:18 10° SW 18:10:02 35° W 18:14:49 10° NNW visible
14 Dec 6.1 17:31:13 10° SSW 17:36:22 61° W 17:41:33 10° N visible
15 Dec 8.3 18:41:16 10° WSW 18:44:11 15° WNW 18:47:09 10° NW visible
16 Dec 7.7 18:06:01 10° SW 18:10:18 25° WNW 18:14:37 10° NNW visible
17 Dec 6.8 17:31:36 10° SSW 17:36:33 43° W 17:41:32 10° N visible
